This demonstration page uses our WeatherBlox Daily Observations layout. Learn more.

38.88101, -77.10428

Hourly Observations for August 6, 2016

Temp ( °F °C ) Dew Point ( °F °C ) Humidity (%) Winds ( mph kmh ) Pressure ( in mb ) Visibility ( mi km ) Precip ( " mm )
12:52 am 00:52 Cloudy 78 25.6 73 22.8 85 85 S 12 19 29.88 1012 10 16.09344 0 0
1:34 am 01:34 Mostly Cloudy 78 25.6 74 23.3 87 87 S 9 15 29.88 1012 10 16.09344 0 0
1:52 am 01:52 Cloudy 78 25.6 74 23.3 87 87 SSW 10 17 29.88 1012 10 16.09344 0 0
2:52 am 02:52 Cloudy with Light Rain 78 25.6 74 23.3 87 87 SSW 9 15 29.85 1011 10 16.09344 0.001 0.001
2:55 am 02:55 Cloudy with Light Rain 78 25.6 74 23.3 87 87 S 9 15 29.85 1011 10 16.09344 0.001 0.001
3:03 am 03:03 Cloudy 77 25 74 23.3 90 90 S 9 15 29.85 1011 10 16.09344 0.001 0.001
3:10 am 03:10 Cloudy 77 25 74 23.3 90 90 SSW 10 17 29.85 1011 10 16.09344 0.001 0.001
3:52 am 03:52 Mostly Cloudy 76 24.4 74 23.3 94 94 SSW 9 15 29.83 1010 10 16.09344 0.001 0.001
4:20 am 04:20 Partly Cloudy 76 24.4 74 23.3 94 94 SSW 7 11 29.83 1010 10 16.09344 0 0
4:24 am 04:24 Mostly Cloudy 76 24.4 74 23.3 94 94 SSW 7 11 29.83 1010 10 16.09344 0 0
4:52 am 04:52 Mostly Cloudy 76 24.4 74 23.3 94 94 SSW 7 11 29.83 1010 10 16.09344 0 0
5:39 am 05:39 Partly Cloudy 76 24.4 74 23.3 94 94 SSW 6 9 29.83 1010 10 16.09344 0 0
5:52 am 05:52 Mostly Clear 76 24.4 74 23.3 94 94 SW 5 7 29.83 1010 10 16.09344 0 0
6:20 am 06:20 Mostly Cloudy 76 24.4 74 23.3 94 94 SSW 6 9 29.83 1010 10 16.09344 0 0
6:52 am 06:52 Mostly Cloudy 76 24.4 74 23.3 94 94 S 6 9 29.83 1010 10 16.09344 0 0
7:14 am 07:14 Mostly Cloudy 76 24.4 73 22.8 91 91 SSW 5 7 29.83 1010 10 16.09344 0 0
7:52 am 07:52 Mostly Cloudy 77 25 73 22.8 88 88 SW 5 7 29.83 1010 10 16.09344 0 0
8:52 am 08:52 Partly Cloudy 79 26.1 74 23.3 85 85 SSE 9 15 29.83 1010 10 16.09344 0 0
9:52 am 09:52 Partly Cloudy 82 27.8 75 23.9 79 79 S 8 13 29.83 1010 10 16.09344 0 0
10:52 am 10:52 Mostly Cloudy 86 30 75 23.9 70 70 N 7 11 29.83 1010 10 16.09344 0 0
11:52 am 11:52 Mostly Cloudy 90 32.2 73 22.8 58 58 WNW 12 19 29.8 1009 10 16.09344 0 0
12:52 pm 12:52 Mostly Cloudy 91 32.8 72 22.2 54 54 N 5 7 29.8 1009 10 16.09344 0 0
1:52 pm 13:52 Cloudy 91 32.8 72 22.2 54 54 WNW 5 7 29.77 1008 10 16.09344 0 0
2:09 pm 14:09 Cloudy with Light Rain 90 32.2 73 22.8 58 58 N 6 9 29.77 1008 10 16.09344 0.001 0.001
2:52 pm 14:52 Cloudy with Light Rain 85 29.4 74 23.3 70 70 NW 9 15 29.77 1008 9 14.484096 0.01 0.254
3:52 pm 15:52 Cloudy 81 27.2 75 23.9 82 82 WSW 12 19 29.77 1008 10 16.09344 0.05 1.27
4:52 pm 16:52 Sunny 82 27.8 75 23.9 79 79 S 9 15 29.77 1008 10 16.09344 0 0
5:52 pm 17:52 Mostly Cloudy 83 28.3 76 24.4 79 79 S 12 19 29.77 1008 10 16.09344 0 0
6:52 pm 18:52 Partly Cloudy 84 28.9 74 23.3 72 72 SSW 9 15 29.77 1008 10 16.09344 0 0
6:56 pm 18:56 Partly Cloudy 83 28.3 74 23.3 74 74 S 8 13 29.77 1008 10 16.09344 0 0
7:52 pm 19:52 Mostly Cloudy 81 27.2 75 23.9 82 82 S 6 9 29.77 1008 10 16.09344 0 0
8:52 pm 20:52 Mostly Cloudy 80 26.7 75 23.9 85 85 S 8 13 29.8 1009 10 16.09344 0 0
9:33 pm 21:33 Mostly Cloudy 81 27.2 74 23.3 79 79 WSW 7 11 29.83 1010 10 16.09344 0 0
9:52 pm 21:52 Mostly Cloudy 81 27.2 73 22.8 77 77 W 8 13 29.83 1010 10 16.09344 0 0
10:52 pm 22:52 Mostly Clear 80 26.7 73 22.8 79 79 W 8 13 29.83 1010 10 16.09344 0 0
11:52 pm 23:52 Mostly Clear 81 27.2 69 20.6 67 67 NW 9 15 29.83 1010 10 16.09344 0 0

Powered by AerisWeather